Regional Weather Roundup
Issued by NWS

Home | Current Version | Previous Version | Graphics & Text | Print | Product List | Glossary On
Versions: 1 2 3 4 5 6 7 8 9 10 11 12 13 14 15 16 17 18 19 20 21 22 23 24 25 26 27 28 29 30 31 32 33 34 35 36 37 38 39 40 41 42 43 44 45 46 47 48 49 50
000
ASUS45 KSLC 181110
RWRUT

UTAH REGIONAL WEATHER ROUNDUP
NATIONAL WEATHER SERVICE SALT LAKE CITY UT
500 AM MDT SAT APR 18 2015

UTZ001>011-023>025-181200-

NORTHERN UTAH

CITY           SKY/WX    TMP DP  RH WIND       PRES   REMARKS
BRIGHAM CITY   CLEAR     39  35  84 CALM      30.02F
HILL AFB       CLEAR     43  36  77 E16       30.02S
LOGAN          CLEAR     41  34  76 CALM      30.04S
OGDEN          CLEAR     43  36  76 S6        30.01S
PROVO AIRPORT  CLEAR     39  34  81 SE3       30.03S
SALT LAKE CITY CLEAR     44  37  76 CALM      30.01S
VERNAL         CLOUDY    42  34  73 CALM      30.02F
WENDOVER       PTCLDY    48  19  32 CALM      30.03S
HEBER CITY     CLEAR     32  28  86 CALM      30.07R
WEST JORDAN    CLEAR     45  36  70 N5        30.03S

$$

UTZ012>022-026-027-181200-

SOUTHERN/CENTRAL UTAH

CITY           SKY/WX    TMP DP  RH WIND       PRES   REMARKS
BLANDING       CLEAR     31  31 100 CALM      30.09S
BRYCE CANYON   CLEAR     35  26  69 NW6       30.08S WCI  30
CEDAR CITY     CLEAR     35  26  69 S6        30.06S WCI  30
DELTA          CLEAR     33  26  76 S6        30.03F WCI  28
HANKSVILLE     MOCLDY    43  41  93 CALM      30.04F
MILFORD        CLEAR     31  26  82 SW10      30.05S WCI  22
MOAB/CYNLANDS  CLEAR     38  37  97 SE6       30.01F WCI  33
PRICE          MOCLDY    40  33  76 CALM      30.02S
ST GEORGE      SUNNY     48  25  40 CALM      30.02S
KANAB          CLEAR     32  28  86 CALM      30.08S

$$

REGIONAL REPORTS     COLORADO/ARIZONA

CITY           SKY/WX    TMP DP  RH WIND       PRES   REMARKS
CRAIG, CO      CLOUDY    33  30  88 SW6       30.02S WCI  28
GRAND JUNCTION CLOUDY    32  32 100 N7        30.05R FOG     WCI  26
RIFLE          CLOUDY    35  31  85 NE5       30.04S WCI  31
MONTROSE       CLOUDY    31  31 100 CALM      30.07R
CORTEZ         CLOUDY    33  33 100 S3        30.04R
PAGE, AZ       CLEAR     48  34  58 CALM      29.99S
GRAND CANYON   CLEAR     23  20  88 CALM      30.09F
KINGMAN        CLEAR     40  18  41 CALM      30.00F
FLAGSTAFF      CLEAR     27  22  81 W3        30.09F

$$

REGIONAL REPORTS    NEVADA/IDAHO/WYOMING

CITY           SKY/WX    TMP DP  RH WIND       PRES   REMARKS
LAS VEGAS, NV  CLEAR     61  21  21 SW6       29.92S
ELY            CLEAR     25  11  55 S13       30.13S WCI  14
ELKO           CLEAR     33  22  63 CALM      30.11S
POCATELLO, ID  CLEAR     42  25  50 SW9       30.05S
BURLEY         CLEAR     37  26  64 SW8       30.03R WCI  31
EVANSTON, WY   PTCLDY    32  29  88 CALM      30.08F
ROCK SPRINGS   CLOUDY    35  33  92 NW7       30.06R WCI  29

$$


USA.gov is the U.S. government's official web portal to all federal, state and local government web resources and services.